Zurück zum Katalog

STARLINK-37786

AktivKommunikationSSO
NORAD 69344·PAYLOAD·🇺🇸 United States

Gestartet Jun 3, 2026 von Vandenberg Space Force Base

Loading…

Nächste Überflüge (nächste 24 Stunden)

TLE

AktuellSource: CelesTrak SupGP

Epoche: Sep 14, 2026, 23:34 UTC

1 69344C 26122R   26257.98243056  .00067202  00000+0  20878-2 0  2578
2 69344  97.2826 286.6998 0001228  67.4917 338.9979 15.33380463    12

Verfolge STARLINK-37786 in Echtzeit mit AllMySat

Download on the App Store